Wind_Speed
21 20 20 20 19 15 12 12 12 14 15 17 18 20 20 16 10 8 5 4 6 7 9 10 9 18 14 5 9 6 6 12 11 11 12 11 12 16 11 9 12 5 4 6 25
24 23 21 20 19 19 16 12 11 10 11 13 13 16 18 18 11 9 9 4 2 5 5 10 8 4 4 6 5 5 4 10 7 9 12 13 13 9 15 18 16 9 2 4 7
31 29 25 22 20 18 17 15 11 10 11 13 12 13 17 11 4 1 7 2 1 5 3 14 16 6 5 5 8 9 13 13 15 15 17 18 18 10 14 20 9 11 12 11 6
35 35 33 28 24 20 18 16 12 10 11 14 12 12 17 2 4 7 4 1 2 4 8 10 7 4 5 7 9 11 15 17 17 16 17 17 12 15 13 18 12 12 13 9 9
37 39 36 31 27 24 20 15 10 10 11 14 10 11 7 3 6 9 3 5 2 2 13 8 7 7 6 7 10 7 7 11 10 9 9 10 14 16 20 17 19 15 14 11 13
40 42 36 30 26 23 19 14 11 11 13 11 8 9 3 5 9 8 4 7 8 13 13 10 6 8 4 7 6 8 16 15 14 13 9 11 11 10 12 15 16 17 14 10 12
44 45 36 29 24 19 17 14 14 15 14 9 7 5 4 11 3 4 5 10 9 4 5 12 15 8 9 9 9 11 14 16 14 11 11 12 19 18 13 15 23 18 12 11 10
48 45 35 26 21 17 17 16 15 15 12 8 5 2 6 10 9 8 9 16 12 11 10 11 10 6 5 8 11 12 10 8 11 15 18 13 22 17 17 19 22 23 20 14 10
51 46 34 23 17 16 17 19 18 15 12 5 5 3 7 5 5 8 6 11 16 15 18 17 11 5 6 8 8 5 12 14 18 13 15 14 24 21 20 22 22 21 19 20 17
52 46 32 19 14 16 20 18 13 10 5 2 7 4 8 6 2 3 4 12 10 8 8 8 7 5 5 5 10 10 8 12 17 17 19 19 20 11 10 7 10 9 8 13 15
52 45 29 17 13 14 19 10 6 2 2 9 14 14 17 20 16 11 3 10 8 6 7 10 6 7 11 13 14 18 19 17 15 15 22 22 22 17 13 11 9 9 7 7 7
52 43 25 16 14 13 15 5 9 9 7 12 18 16 23 5 6 9 11 7 8 7 9 7 10 14 15 13 14 17 20 18 15 13 16 20 25 17 10 17 6 9 10 8 8
53 40 20 21 13 8 9 20 17 11 4 10 3 2 4 1 4 9 9 7 6 6 11 8 13 18 19 17 16 18 13 12 15 9 15 14 19 17 14 17 17 18 10 8 14
52 36 19 25 5 20 12 22 17 8 1 6 4 2 4 5 6 13 10 3 2 9 9 12 16 16 17 15 13 19 14 14 10 6 8 7 13 20 16 18 20 19 16 15 16
52 31 18 12 13 9 22 23 15 0 4 4 10 6 17 8 16 15 22 5 8 13 11 13 16 18 17 17 17 19 11 14 4 6 7 5 1 17 12 20 20 19 14 14 21
52 24 17 8 15 17 26 24 14 2 4 7 11 18 14 9 6 6 13 2 8 3 10 15 12 12 18 20 20 19 6 6 6 4 9 13 7 19 8 14 7 14 17 12 8
49 17 12 12 8 23 23 12 2 5 13 14 15 19 15 17 20 17 14 11 7 11 9 12 12 17 9 14 10 8 4 5 4 3 10 9 11 15 17 13 14 12 11 11 9
45 9 9 11 19 22 20 2 5 16 13 15 14 17 12 18 13 13 12 8 9 16 8 5 8 10 19 13 12 15 3 4 5 4 13 12 12 9 10 7 6 4 8 17 17
36 12 10 14 16 19 5 6 4 7 12 13 14 9 11 17 14 14 14 8 5 7 5 6 7 21 21 19 14 14 11 8 9 14 15 11 18 14 6 3 2 8 9 11 14
27 10 5 15 17 10 4 5 5 8 8 9 8 5 15 13 11 13 9 10 7 11 9 5 12 10 16 18 12 10 11 5 4 4 14 8 15 8 4 3 6 7 7 9 10
8 4 7 25 7 4 4 4 5 8 5 4 10 11 11 11 10 10 6 12 10 10 7 10 6 10 11 4 14 15 11 8 6 4 5 9 6 5 2 3 2 7 8 8 7
12 4 12 22 5 3 4 9 8 12 3 5 7 8 9 9 6 7 6 10 8 10 9 5 4 8 18 22 20 13 6 6 4 3 5 4 10 9 12 4 7 8 9 12 8
7 4 13 20 4 5 6 10 11 12 7 6 5 10 5 3 5 6 11 9 10 7 3 2 4 7 8 4 1 3 10 5 9 9 14 10 8 10 16 11 7 9 10 13 17
4 4 4 4 8 7 8 11 8 6 8 12 13 11 4 5 5 9 19 9 8 12 15 15 3 7 11 17 15 23 22 20 15 8 13 16 24 18 14 16 11 13 10 12 15
2 4 3 4 8 14 12 12 12 10 5 6 12 8 9 5 14 15 15 19 12 21 4 5 6 10 18 22 22 27 27 23 18 12 10 15 19 21 13 13 8 10 10 15 17
3 4 4 10 8 12 10 10 12 10 9 7 10 16 7 7 9 19 19 17 13 10 6 5 4 6 15 21 24 22 17 7 6 6 9 13 19 9 18 18 10 11 13 14 18
10 12 3 5 6 8 7 14 16 14 5 14 13 7 8 10 16 21 19 21 16 11 10 3 2 4 11 12 20 2 7 8 10 11 9 13 16 16 20 14 15 16 16 19 17
Wind_Direction
360 356 351 346 343 341 329 328 335 342 343 339 337 337 341 341 325 302 262 206 222 294 301 308 286 247 246 250 265 281 248 249 254 260 278 288 289 300 317 302 313 316 47 58 132
0 356 350 345 340 335 331 319 319 328 336 333 330 336 336 337 332 255 243 254 262 304 323 324 308 261 228 224 227 206 241 249 271 271 277 292 299 324 332 325 317 333 330 42 103
4 357 350 345 340 334 329 324 313 317 324 331 320 327 334 339 276 177 185 206 286 345 297 287 279 287 292 265 235 238 243 260 269 276 283 289 295 301 309 299 296 333 329 330 252
4 359 354 347 343 337 330 324 318 319 325 328 320 323 333 6 31 166 156 185 302 317 299 272 249 242 238 240 250 258 255 251 253 253 263 275 294 296 286 281 295 309 320 323 335
6 360 356 352 347 343 339 333 331 324 326 328 318 327 342 258 234 162 191 171 268 281 252 280 315 306 304 334 333 311 306 309 313 315 298 293 275 276 280 291 297 303 310 317 323
5 360 356 353 351 349 348 347 337 331 331 335 332 335 292 284 157 129 124 202 259 226 263 308 306 313 316 290 291 301 308 303 302 299 298 301 293 309 297 308 289 287 288 296 299
4 358 355 352 350 348 346 343 338 334 331 335 332 342 270 249 200 206 199 235 261 234 278 303 330 2 335 324 281 317 310 303 296 299 296 303 287 272 278 282 290 288 282 272 280
3 358 355 351 349 346 343 338 330 330 332 331 333 347 250 268 314 239 282 284 251 243 254 276 252 238 262 265 284 281 273 283 272 262 264 243 255 261 250 250 256 270 276 266 263
1 358 355 351 348 342 339 330 314 310 316 324 338 211 276 293 233 249 15 340 329 327 318 304 301 218 279 275 289 254 269 266 274 257 260 245 261 255 245 244 240 241 250 258 257
1 357 355 353 346 341 338 342 321 309 318 294 268 301 279 315 4 191 249 277 262 257 270 278 268 249 248 247 256 261 274 291 296 301 305 294 286 295 291 299 262 242 241 249 245
360 356 354 351 338 335 335 338 4 24 253 274 274 270 286 294 317 268 250 273 270 278 280 269 262 248 247 248 270 283 280 278 290 299 299 293 287 287 295 280 281 278 256 268 283
358 354 352 347 330 318 314 321 6 289 310 283 266 261 264 269 296 299 276 240 256 282 296 315 282 276 283 289 295 296 293 291 288 274 284 323 290 294 307 297 282 290 252 265 282
357 352 350 342 321 333 295 1 339 21 303 297 70 234 91 136 265 259 259 246 278 277 276 280 295 298 295 296 290 279 281 285 302 1 304 326 298 294 309 304 287 279 245 227 247
356 352 352 345 351 338 336 340 343 12 257 183 184 93 312 226 261 327 284 299 299 284 277 271 267 277 283 288 292 287 289 281 294 323 270 115 288 283 284 280 280 249 245 237 232
353 352 350 354 309 313 328 335 328 287 63 94 48 138 354 317 315 303 294 160 237 246 265 281 296 284 279 274 272 273 275 273 266 256 284 236 257 280 278 277 260 250 252 244 228
349 351 331 346 318 321 332 325 309 22 41 7 17 347 337 323 291 339 15 266 294 321 315 299 312 309 303 297 291 295 271 283 233 231 270 271 188 267 265 252 260 285 288 279 260
347 342 308 303 286 339 340 330 13 41 352 356 348 330 309 6 2 359 352 336 347 323 302 295 294 290 318 332 322 307 336 320 313 233 256 265 251 244 267 269 274 297 314 288 287
346 342 325 295 333 334 331 352 18 13 17 343 333 313 17 356 350 342 337 325 358 359 331 295 312 333 343 318 303 304 256 196 271 264 290 291 272 248 253 269 231 309 349 341 333
346 354 304 5 343 345 356 47 28 15 351 342 331 354 353 348 356 357 346 306 32 18 1 306 254 326 308 311 303 295 275 260 265 266 283 270 263 274 243 307 44 30 356 327 314
337 329 293 327 334 352 46 7 9 18 345 341 340 319 328 339 353 345 323 293 12 9 20 341 302 287 310 327 291 290 290 319 320 309 273 259 275 258 347 352 31 328 312 291 296
340 315 13 351 360 25 71 15 315 316 324 303 332 312 315 338 341 314 272 307 18 325 342 300 219 292 307 276 306 314 312 301 296 295 268 285 252 207 27 252 181 280 275 281 285
334 340 2 357 29 32 357 348 318 327 38 360 329 326 322 352 312 309 278 329 346 308 311 321 282 281 282 277 269 269 355 354 274 246 239 261 259 253 276 349 290 287 299 310 291
326 274 7 6 28 10 336 333 322 327 26 15 296 302 44 25 321 286 295 300 332 22 309 272 238 295 306 300 91 342 307 249 265 262 257 267 256 316 314 336 345 334 319 328 323
305 324 352 340 9 350 318 295 309 346 1 345 320 300 260 250 249 279 287 292 245 279 250 269 214 228 266 271 289 287 281 282 280 271 278 261 285 289 327 316 328 317 316 320 308
252 351 5 304 327 309 299 285 323 338 340 321 305 326 309 304 304 276 292 301 299 288 300 164 256 249 256 263 269 274 278 280 280 275 263 303 287 291 307 329 311 312 335 331 318
357 352 333 297 291 301 306 349 327 319 338 324 322 303 332 292 272 307 311 298 286 293 247 170 276 284 272 268 265 277 285 308 269 290 289 312 300 268 321 312 310 325 330 319 314
346 337 265 267 296 316 336 322 323 335 308 306 297 331 320 319 308 288 279 274 252 246 246 168 266 267 289 315 301 330 22 354 305 287 302 294 292 303 302 324 328 335 323 303 300
Height
816 812 809 805 801 798 795 793 791 788 786 783 781 778 776 774 773 772 770 768 767 766 765 764 763 763 763 763 761 758 780 777 773 767 756 737 736 713 710 713 707 697 697 696 693
815 811 807 803 799 796 793 791 790 788 786 783 780 778 775 773 771 769 766 765 765 765 765 764 761 760 766 761 763 769 780 770 756 751 750 740 736 731 727 722 717 712 693 691 698
812 808 805 801 797 793 790 788 787 786 784 782 780 778 776 773 773 763 764 764 765 764 764 763 760 759 763 759 761 761 768 759 752 745 739 737 732 726 731 727 723 725 713 703 692
811 806 801 796 793 790 787 784 783 782 781 780 778 777 774 773 776 763 763 763 764 763 763 760 757 763 765 768 753 764 750 746 743 738 737 737 730 730 727 720 713 713 712 709 706
811 804 798 793 789 786 783 781 780 780 779 778 776 775 773 773 764 761 761 763 763 763 762 759 760 761 767 762 757 758 751 742 738 738 736 731 732 729 721 712 707 708 710 711 707
810 803 797 791 787 784 781 780 779 778 777 776 775 775 775 775 756 757 759 760 759 760 758 757 758 754 757 760 764 754 750 744 738 738 735 738 734 730 722 710 708 706 709 708 706
810 802 795 790 786 782 780 779 777 776 775 775 774 774 774 768 756 756 757 757 757 758 758 757 755 759 760 765 752 754 761 751 745 740 738 732 735 732 721 716 709 708 705 704 703
809 801 795 790 785 782 780 778 776 775 774 773 773 774 772 755 755 756 756 755 755 755 754 754 754 756 760 757 757 762 760 770 745 739 732 737 742 725 714 714 713 707 701 702 701
807 799 793 788 785 782 780 777 774 773 773 773 773 773 768 754 754 754 756 756 755 754 754 753 751 757 759 770 773 764 772 763 747 730 728 732 730 714 704 705 705 705 702 697 696
807 798 791 787 785 782 777 774 771 771 772 772 773 777 763 754 752 752 754 755 755 754 755 755 756 764 767 773 784 769 763 752 748 733 728 730 723 713 705 700 700 703 699 698 696
806 798 792 788 785 783 778 774 773 776 773 775 770 766 759 753 751 749 750 751 752 753 766 756 768 773 762 754 748 745 747 748 738 729 732 729 721 712 706 701 701 699 697 697 697
806 797 791 788 785 782 781 779 778 778 772 760 758 757 753 751 754 749 749 754 755 764 756 762 767 750 741 740 741 742 744 742 732 725 729 737 721 708 705 700 695 697 694 691 691
806 797 791 787 782 781 781 779 776 774 782 759 745 748 750 751 752 750 744 744 751 758 760 766 755 742 740 741 743 739 743 738 737 732 735 735 726 713 704 699 689 687 689 684 686
806 797 792 786 785 781 778 777 775 773 789 761 754 751 749 746 750 740 738 743 747 757 753 754 742 740 739 740 737 742 728 725 731 743 753 741 752 721 708 710 696 683 680 680 678
805 799 793 790 788 784 779 775 773 774 798 749 754 750 753 757 750 742 732 737 750 749 748 750 743 739 738 733 726 728 718 720 726 741 744 745 762 707 704 696 690 679 675 671 666
804 799 794 791 788 782 776 773 772 792 792 766 763 767 761 753 745 736 737 734 733 742 743 742 730 732 728 721 717 709 715 720 727 735 746 726 745 707 711 695 684 674 669 666 664
801 795 793 791 787 781 777 773 793 805 773 783 781 771 765 764 756 752 754 756 764 763 766 746 739 724 720 724 717 714 726 758 760 748 735 710 714 712 689 672 672 671 668 665 658
797 792 792 789 784 781 776 787 795 791 794 787 784 772 774 769 766 761 762 765 755 761 766 763 754 733 727 737 737 730 729 755 749 750 728 705 706 692 675 669 663 670 671 664 665
795 791 790 787 785 782 785 810 806 801 795 795 785 785 785 776 776 774 774 767 763 762 779 772 750 735 736 729 729 726 730 721 729 721 722 707 689 673 666 667 665 671 674 672 668
799 794 790 787 784 783 797 801 798 792 790 792 799 788 793 785 785 786 779 763 769 767 772 770 767 742 732 732 720 724 717 744 746 758 727 700 688 686 672 670 670 671 673 671 663
802 800 791 786 781 790 813 801 791 786 785 792 794 795 790 788 788 788 777 767 772 771 773 771 777 752 747 734 731 726 727 720 723 726 728 713 696 662 668 664 671 669 666 663 661
812 808 792 788 799 799 807 795 786 783 778 784 787 788 788 789 791 788 776 774 766 770 775 772 771 760 743 726 720 721 731 736 732 725 719 708 684 660 657 660 662 661 658 655 652
821 806 792 791 814 812 800 795 786 783 782 785 788 783 785 793 804 790 779 767 769 773 777 780 770 758 739 721 718 724 724 728 730 729 718 712 691 658 656 662 664 664 658 653 650
828 818 808 803 809 813 807 799 790 778 782 782 785 779 781 786 784 782 771 766 764 764 765 767 772 764 757 741 733 733 727 723 726 719 708 696 680 667 670 667 664 658 656 653 646
826 824 821 826 819 814 806 797 790 789 782 781 782 780 783 797 781 774 764 761 759 755 757 761 758 756 749 739 736 725 719 714 718 710 702 697 690 677 669 673 665 658 656 654 648
834 835 827 822 814 809 800 798 793 786 786 783 786 777 777 784 781 770 766 762 761 751 754 761 755 752 740 732 722 707 704 716 714 714 708 704 694 674 673 667 664 660 659 657 653
836 834 831 821 813 809 804 802 793 789 782 777 774 777 777 773 769 760 754 747 749 750 750 760 764 752 725 713 710 713 730 730 725 716 717 708 691 684 676 672 674 672 666 656 656